When you browse on this site, cookies collect data to enhance your experience and personalize the content and advertising you see.
Visit our Privacy Policy to learn more. By continuing to use the site, you agree to this use of cookies and data.
  • In Hungary
  • List of Countries
  • For 7 days
  • Water Temperature
  • Satellite Maps
  • Weather Map
  • News
  • Weather Widgets
  • user-avatar
    Login

    Hourly Weather Tampico

    Today, 16 February, Saturday

    Time Temperature Precipitation Wind Pressure Humidity
    00:00 +23°C° 0 mm 2 mps 755 mmHg 93%
    01:00 +23°C° 0 mm 2 mps 755 mmHg 94%
    02:00 +22°C° 0 mm 1 mps 755 mmHg 95%
    03:00 +22°C° 0 mm 1 mps 755 mmHg 95%
    04:00 +22°C° 0 mm 1 mps 754 mmHg 95%
    05:00 +22°C° 0 mm 1 mps 754 mmHg 95%
    06:00 +23°C° 0 mm 1 mps 755 mmHg 90%
    07:00 +24°C° 0 mm 2 mps 755 mmHg 86%
    08:00 +25°C° 0 mm 2 mps 755 mmHg 82%
    09:00 +28°C° 0 mm 2 mps 755 mmHg 74%
    10:00 +30°C° 0 mm 2 mps 755 mmHg 67%
    11:00 +32°C° 0 mm 2 mps 755 mmHg 59%
    12:00 +33°C° 0 mm 3 mps 754 mmHg 59%
    13:00 +33°C° 0 mm 4 mps 752 mmHg 60%
    14:00 +33°C° 0 mm 4 mps 751 mmHg 60%
    15:00 +32°C° 0 mm 5 mps 751 mmHg 66%
    16:00 +29°C° 0 mm 5 mps 751 mmHg 73%
    17:00 +28°C° 0 mm 5 mps 751 mmHg 79%
    18:00 +27°C° 0 mm 5 mps 751 mmHg 82%
    19:00 +26°C° 0 mm 5 mps 751 mmHg 85%
    20:00 +25°C° 0 mm 5 mps 752 mmHg 89%
    21:00 +25°C° 0 mm 4 mps 752 mmHg 90%
    22:00 +24°C° 0 mm 3 mps 752 mmHg 92%
    23:00 +24°C° 0 mm 3 mps 752 mmHg 94%

    Tomorrow, 17 February, Sunday

    Time Temperature Precipitation Wind Pressure Humidity
    00:00 +24°C° 0 mm 2 mps 751 mmHg 94%
    01:00 +24°C° 0 mm 2 mps 751 mmHg 95%
    02:00 +24°C° 0 mm 2 mps 750 mmHg 95%
    03:00 +24°C° 0 mm 2 mps 750 mmHg 95%
    04:00 +24°C° 0 mm 2 mps 750 mmHg 95%
    05:00 +24°C° 0 mm 2 mps 750 mmHg 95%
    06:00 +25°C° 0 mm 2 mps 751 mmHg 91%
    07:00 +26°C° 0 mm 2 mps 752 mmHg 87%
    08:00 +27°C° 0 mm 2 mps 752 mmHg 82%
    09:00 +29°C° 0 mm 2 mps 752 mmHg 75%
    10:00 +31°C° 0 mm 2 mps 753 mmHg 68%
    11:00 +32°C° 0 mm 1 mps 753 mmHg 61%
    12:00 +34°C° 0 mm 3 mps 752 mmHg 61%
    13:00 +34°C° 0 mm 4 mps 752 mmHg 61%
    14:00 +34°C° 0 mm 6 mps 751 mmHg 62%
    15:00 +33°C° 0 mm 6 mps 752 mmHg 66%
    16:00 +30°C° 0 mm 7 mps 752 mmHg 70%
    17:00 +29°C° 0 mm 8 mps 753 mmHg 74%
    18:00 +28°C° 0 mm 8 mps 754 mmHg 76%
    19:00 +27°C° 0 mm 7 mps 755 mmHg 79%
    20:00 +26°C° 0 mm 7 mps 757 mmHg 82%
    21:00 +24°C° 0 mm 7 mps 757 mmHg 80%
    22:00 +24°C° 0 mm 7 mps 757 mmHg 78%
    23:00 +23°C° 0 mm 7 mps 758 mmHg 76%

    Day after tomorrow, 18 February, Monday

    Time Temperature Precipitation Wind Pressure Humidity
    00:00 +23°C° 0 mm 6 mps 757 mmHg 74%
    01:00 +23°C° 0 mm 6 mps 757 mmHg 73%
    02:00 +22°C° 0 mm 5 mps 757 mmHg 71%
    03:00 +22°C° 0 mm 4 mps 757 mmHg 72%
    04:00 +22°C° 0 mm 4 mps 757 mmHg 73%
    05:00 +22°C° 0 mm 3 mps 757 mmHg 74%
    06:00 +24°C° 0 mm 3 mps 758 mmHg 72%
    07:00 +25°C° 0 mm 3 mps 759 mmHg 69%
    08:00 +25°C° 0 mm 3 mps 759 mmHg 67%
    09:00 +26°C° 0 mm 4 mps 759 mmHg 65%
    10:00 +28°C° 0 mm 4 mps 759 mmHg 63%
    11:00 +29°C° 0 mm 4 mps 759 mmHg 61%
    12:00 +29°C° 0 mm 4 mps 758 mmHg 62%
    13:00 +29°C° 0 mm 5 mps 757 mmHg 63%
    14:00 +29°C° 0 mm 5 mps 756 mmHg 64%
    15:00 +28°C° 0 mm 5 mps 756 mmHg 69%
    16:00 +26°C° 0 mm 5 mps 756 mmHg 74%
    17:00 +25°C° 0 mm 4 mps 756 mmHg 79%
    18:00 +25°C° 0 mm 3 mps 757 mmHg 83%
    19:00 +24°C° 0 mm 2 mps 757 mmHg 87%
    20:00 +23°C° 0 mm 1 mps 758 mmHg 91%
    21:00 +23°C° 0 mm 1 mps 758 mmHg 92%
    22:00 +23°C° 0 mm 1 mps 758 mmHg 94%
    23:00 +23°C° 0 mm 1 mps 758 mmHg 95%

    19 February, Tuesday

    Time Temperature Precipitation Wind Pressure Humidity
    00:00 +23°C° 0 mm 1 mps 757 mmHg 95%
    01:00 +23°C° 0 mm 1 mps 757 mmHg 95%
    02:00 +21°C° 0 mm 0 mps 756 mmHg 95%
    03:00 +21°C° 0 mm 0 mps 756 mmHg 94%
    04:00 +21°C° 0 mm 0 mps 756 mmHg 93%
    05:00 +21°C° 0 mm 0 mps 756 mmHg 92%
    06:00 +24°C° 0 mm 1 mps 756 mmHg 90%
    07:00 +24°C° 0 mm 1 mps 756 mmHg 89%
    08:00 +24°C° 0 mm 2 mps 757 mmHg 87%
    09:00 +26°C° 0 mm 2 mps 756 mmHg 82%
    10:00 +27°C° 0 mm 3 mps 756 mmHg 77%
    11:00 +28°C° 0 mm 3 mps 756 mmHg 72%
    12:00 +29°C° 0 mm 4 mps 755 mmHg 70%
    13:00 +30°C° 0 mm 4 mps 754 mmHg 69%
    14:00 +30°C° 0 mm 5 mps 752 mmHg 67%
    15:00 +29°C° 0 mm 6 mps 752 mmHg 73%
    16:00 +28°C° 0 mm 6 mps 752 mmHg 79%
    17:00 +26°C° 0 mm 7 mps 752 mmHg 84%
    18:00 +26°C° 0 mm 6 mps 753 mmHg 88%
    19:00 +25°C° 0 mm 5 mps 753 mmHg 92%
    20:00 +23°C° 0 mm 4 mps 754 mmHg 96%
    21:00 +24°C° 0 mm 3 mps 753 mmHg 96%
    22:00 +24°C° 0 mm 3 mps 753 mmHg 96%
    23:00 +24°C° 0 mm 3 mps 753 mmHg 97%

    20 February, Wednesday

    Time Temperature Precipitation Wind Pressure Humidity
    00:00 +24°C° 0 mm 2 mps 753 mmHg 96%
    01:00 +24°C° 0 mm 2 mps 753 mmHg 96%
    02:00 +23°C° 0 mm 1 mps 752 mmHg 96%
    03:00 +23°C° 0 mm 1 mps 752 mmHg 96%
    04:00 +23°C° 0 mm 1 mps 752 mmHg 96%
    05:00 +20°C° 0 mm 0 mps 752 mmHg 96%
    06:00 +24°C° 0 mm 1 mps 753 mmHg 92%
    07:00 +25°C° 0 mm 2 mps 754 mmHg 88%
    08:00 +26°C° 0 mm 2 mps 754 mmHg 83%
    09:00 +27°C° 0 mm 3 mps 754 mmHg 77%
    10:00 +29°C° 0 mm 5 mps 755 mmHg 70%
    11:00 +32°C° 0 mm 6 mps 755 mmHg 63%
    12:00 +30°C° 0 mm 7 mps 754 mmHg 64%
    13:00 +31°C° 0 mm 8 mps 753 mmHg 64%
    14:00 +31°C° 0 mm 9 mps 753 mmHg 65%
    15:00 +28°C° 0 mm 9 mps 753 mmHg 69%
    16:00 +26°C° 0 mm 9 mps 754 mmHg 73%
    17:00 +23°C° 0 mm 9 mps 754 mmHg 77%
    18:00 +23°C° 0 mm 9 mps 755 mmHg 79%
    19:00 +22°C° 0 mm 8 mps 756 mmHg 80%
    20:00 +21°C° 0 mm 7 mps 757 mmHg 82%
    21:00 +21°C° 0 mm 7 mps 757 mmHg 81%
    22:00 +21°C° 0 mm 6 mps 757 mmHg 80%
    23:00 +21°C° 0 mm 5 mps 757 mmHg 79%

    21 February, Thursday

    Time Temperature Precipitation Wind Pressure Humidity
    00:00 +21°C° 0 mm 5 mps 757 mmHg 78%
    01:00 +21°C° 0 mm 4 mps 756 mmHg 77%
    02:00 +21°C° 0 mm 4 mps 756 mmHg 76%
    03:00 +21°C° 0 mm 3 mps 756 mmHg 78%
    04:00 +20°C° 0 mm 3 mps 756 mmHg 79%
    05:00 +20°C° 0 mm 2 mps 756 mmHg 81%
    06:00 +21°C° 0 mm 2 mps 757 mmHg 79%
    07:00 +21°C° 0 mm 2 mps 757 mmHg 76%
    08:00 +23°C° 0 mm 2 mps 758 mmHg 74%
    09:00 +24°C° 0 mm 2 mps 757 mmHg 71%
    10:00 +26°C° 0 mm 2 mps 757 mmHg 68%
    11:00 +27°C° 0 mm 3 mps 756 mmHg 66%
    12:00 +27°C° 0 mm 3 mps 755 mmHg 66%
    13:00 +27°C° 0 mm 4 mps 754 mmHg 66%
    14:00 +27°C° 0 mm 4 mps 753 mmHg 67%
    15:00 +27°C° 0 mm 4 mps 753 mmHg 71%
    16:00 +26°C° 0 mm 4 mps 753 mmHg 75%
    17:00 +25°C° 0 mm 4 mps 753 mmHg 79%
    18:00 +24°C° 0 mm 3 mps 754 mmHg 84%
    19:00 +22°C° 0 mm 3 mps 755 mmHg 89%
    20:00 +21°C° 0 mm 2 mps 755 mmHg 93%
    21:00 +21°C° 0 mm 2 mps 756 mmHg 94%
    22:00 +22°C° 0 mm 1 mps 756 mmHg 95%
    23:00 +22°C° 0 mm 1 mps 756 mmHg 95%
    Show more